Location: Newark
(48.8604°N, 2.3376°E)
Time: 14:46:29
(UTC+00:00)

Envisat - Pass Details

Date: 02 October 2021
Orbit: 764 x 766 km, 98.2° (Epoch: 18 October)

Event Time Altitude Azimuth Distance (km) Brightness Sun altitude
Rises 04:35:19 0° 18° (NNE) 3,243 6.7 -13.4°
Reaches altitude 10° 04:37:45 10° 25° (NNE) 2,312 6.0 -13.0°
Maximum altitude 04:42:37 45° 98° (E) 1,041 4.2 -12.2°
Drops below altitude 10° 04:47:28 10° 171° (S) 2,295 5.5 -11.4°
Sets 04:49:51 0° 177° (S) 3,216 6.2 -11.0°
